Home   Weather   Antwerp   Past weeks

Flag for Belgium Past Weather in Antwerp, Belgium — Yesterday and Last 2 Weeks

45 °F


Feels Like: 41 °F
Forecast: 48 / 54 °F
Wind: 7 mph from Northeast

Location: Antwerp / Deurne

Current Time: Oct 24, 2016 at 7:20:28 AM

Latest Report: Oct 24, 2016 at 6:50 AM

Visibility: 3 mi

Pressure: 29.86 "Hg

Humidity: 81%

Dew Point: 39 °F

Location of AntwerpLocation

Past Weather in Antwerp — Graph


Antwerp Temperature Yesterday

Maximum temperature yesterday: 45 °F (at 3:20 PM)
Minimum temperature yesterday: 34 °F (at 5:20 AM)
Average temperature yesterday: 39 °F

High & Low Weather Summary for the Past Weeks

High70 °F (Oct 16, 4:20 PM)100% (Oct 21, 7:50 AM)30.33 "Hg (Oct 21, 7:50 AM)
Low34 °F (Oct 11, 5:50 AM)41% (Oct 9, 4:20 PM)29.65 "Hg (Oct 14, 11:50 PM)
Average49 °F78%30.02 "Hg
* Reported Oct 9 5:20 AM — Oct 24 5:50 AM, Antwerp, Weather by CustomWeather, © 2016

Note: Actual official high and low records may vary slightly from our data, if they occured in-between our weather recording intervals... More about our weather records


Antwerp Weather History for the Previous 24 Hours

Scroll right to see more
Time TempWeatherWind HumidityBarometerVisibility
5:50 AM
Mon, Oct 24
43 °FFog.6 mph87%29.86 "Hg2 mi
5:20 AM43 °FDrizzle. Fog.6 mph87%29.86 "Hg2 mi
4:50 AM43 °FFog.3 mph87%29.89 "Hg2 mi
4:20 AM43 °FFog.5 mph87%29.89 "Hg2 mi
3:50 AM43 °FFog.5 mph87%29.89 "Hg2 mi
3:20 AM43 °FFog.3 mph87%29.89 "Hg2 mi
2:50 AM43 °FFog.5 mph81%29.89 "Hg2 mi
2:20 AM43 °FFog.5 mph87%29.89 "Hg2 mi
1:50 AM43 °FFog.6 mph87%29.86 "Hg2 mi
1:20 AM43 °FFog.7 mph87%29.86 "Hg2 mi
12:50 AM43 °FFog.5 mph81%29.86 "Hg2 mi
12:20 AM43 °FFog.7 mph81%29.86 "Hg2 mi
11:50 PM
Sun, Oct 23
43 °FFog.7 mph87%29.86 "Hg2 mi
11:20 PM43 °FFog.6 mph87%29.89 "Hg2 mi
10:50 PM43 °FFog.5 mph81%29.89 "Hg2 mi
10:20 PM43 °FFog.5 mph87%29.89 "Hg2 mi
9:50 PM43 °FFog.8 mph87%29.86 "Hg2 mi
9:20 PM43 °FFog.6 mph87%29.89 "Hg2 mi
8:50 PM43 °FFog.7 mph87%29.89 "Hg2 mi
8:20 PM43 °FFog.7 mph87%29.89 "Hg2 mi
7:50 PM41 °FFog.8 mph87%29.89 "Hg1 mi
7:20 PM41 °FFog.7 mph87%29.89 "Hg1 mi
6:50 PM41 °FFog.10 mph87%29.89 "Hg1 mi
6:20 PM43 °FFog.8 mph81%29.89 "Hg1 mi
5:50 PM43 °FFog.8 mph87%29.89 "Hg2 mi
5:20 PM43 °FFog.8 mph87%29.89 "Hg2 mi
4:50 PM43 °FFog.8 mph87%29.89 "Hg2 mi
4:20 PM43 °FFog.7 mph87%29.89 "Hg2 mi
3:50 PM45 °FFog.8 mph81%29.89 "Hg2 mi
3:20 PM45 °FFog.7 mph81%29.89 "Hg2 mi
2:50 PM43 °FFog.6 mph87%29.89 "Hg1 mi
2:20 PM43 °FFog.5 mph87%29.89 "Hg1 mi
1:50 PM41 °FFog.3 mph87%29.89 "Hg1 mi
1:20 PM41 °FFog.5 mph87%29.92 "Hg1 mi
12:50 PM41 °FFog.3 mph87%29.92 "Hg1 mi
12:20 PM39 °FFog.3 mph87%29.92 "Hg0 mi
11:50 AM39 °FFog.3 mph87%29.92 "Hg0 mi
11:20 AM37 °FFog.5 mph93%29.92 "Hg0 mi
10:50 AM37 °FFog.5 mph87%29.92 "Hg0 mi
10:20 AM37 °FFog.5 mph87%29.95 "Hg0 mi
9:50 AM36 °FFog.5 mph93%29.95 "Hg0 mi
9:20 AM36 °FFog.5 mph87%29.95 "Hg0 mi
8:50 AM36 °FFog.3 mph87%29.92 "Hg0 mi
8:20 AM36 °FFog.3 mph87%29.92 "Hg0 mi
7:50 AM36 °FFog.5 mph87%29.92 "Hg0 mi
7:20 AM34 °FFog.3 mph87%29.92 "Hg1 mi
Weather by CustomWeather, © 2016

See weather overviewHow to use our weather pages